Location: Newark
(48.2308°N, 120.8549°W)
Time: 05:07:24
(UTC+00:00)

Tiangong - Pass Details

Date: 23 June 2021
Orbit: 373 x 386 km, 41.5° (Epoch: 03 August)

Event Time Altitude Azimuth Distance (km) Brightness Sun altitude
Exits shadow 10:37:29 14° 185° (S) 1,163 3.0 -10.7°
Maximum altitude 10:38:27 16° 163° (SSE) 1,086 3.0 -10.6°
Drops below altitude 10° 10:40:29 10° 123° (ESE) 1,389 3.9 -10.4°
Sets 10:43:06 0° 100° (E) 2,252 5.3 -10.2°
